Bookmark and Share
Track history (hours):
 

Cyprus Cement

Last reported at 2014-Apr-23 21:31 UTC. Time now 2014-Apr-24 19:40 UTC.
Position N 57°30' E 010°43'.

Length 97 m; draft 5.6 m.

Type: Cargo ship. MMSI: 311988000.

NotesDate/timePositionNaut miles runAvg speedWind from/ knotsBaromVisibWave heightAir tempDewpointWater temp
2014-Apr-23 21:31N 57°30' E 010°43'1111.1
2014-Apr-23 20:33N 57°41' E 010°45'1111.0
2014-Apr-23 19:33N 57°52' E 010°41'1110.8
2014-Apr-23 18:34N 58°02' E 010°33'80 3.0
2014-Apr-22 16:13N 59°22' E 010°34'26 1.0
2014-Apr-21 15:20N 59°48' E 010°32'810.7
2014-Apr-21 14:34N 59°53' E 010°44'0 0.5
2014-Apr-21 13:33N 59°53' E 010°45'0 0.0
2014-Apr-21 12:33N 59°53' E 010°45'0 0.0
2014-Apr-21 11:33N 59°53' E 010°45'0 0.0
2014-Apr-21 10:33N 59°53' E 010°45'0 0.0
2014-Apr-21 09:33N 59°53' E 010°45'0 0.5
2014-Apr-21 08:33N 59°53' E 010°44'41 9.6
2014-Apr-21 04:17N 59°13' E 010°39'148 3.9
2014-Apr-19 14:33N 58°06' E 006°24'1211.7
2014-Apr-19 13:33N 58°15' E 006°09'1211.6
2014-Apr-19 12:34N 58°23' E 005°53'1111.0
2014-Apr-19 11:33N 58°31' E 005°38'1110.7
2014-Apr-19 10:32N 58°41' E 005°29'9 9.6
2014-Apr-19 09:33N 58°50' E 005°29'1111.5
2014-Apr-19 08:33N 59°01' E 005°33'8 7.7
2014-Apr-19 07:33N 58°59' E 005°47'1 0.8
2014-Apr-19 06:31N 58°58' E 005°46'0 0.0
2014-Apr-19 05:31N 58°58' E 005°46'0 0.0
2014-Apr-19 04:31N 58°58' E 005°46'0 0.0
2014-Apr-19 03:31N 58°58' E 005°46'0 0.0
2014-Apr-19 02:31N 58°58' E 005°46'0 0.0
2014-Apr-19 01:31N 58°58' E 005°46'0 0.0
2014-Apr-19 00:31N 58°58' E 005°46'0 0.0
2014-Apr-18 23:31N 58°58' E 005°46'0 0.0
2014-Apr-18 22:31N 58°58' E 005°46'0 0.0
2014-Apr-18 21:31N 58°58' E 005°46'0 0.0
2014-Apr-18 20:31N 58°58' E 005°46'0 0.0
2014-Apr-18 19:31N 58°58' E 005°46'3 2.9
2014-Apr-18 18:33N 59°01' E 005°48'1010.2
2014-Apr-18 17:34N 59°06' E 005°31'1110.8
2014-Apr-18 16:33N 59°15' E 005°20'1411.8
2014-Apr-18 15:23N 59°28' E 005°13'180 9.5
2014-Apr-17 20:33N 62°27' E 005°58'1110.7
2014-Apr-17 19:33N 62°28' E 006°21'0 0.1
2014-Apr-17 18:33N 62°28' E 006°21'0 0.0
2014-Apr-17 17:33N 62°28' E 006°21'0 0.0
2014-Apr-17 16:33N 62°28' E 006°21'0 0.0
2014-Apr-17 15:33N 62°28' E 006°21'0 0.0
2014-Apr-17 14:33N 62°28' E 006°21'0 0.0
2014-Apr-17 13:33N 62°28' E 006°21'0 0.0
2014-Apr-17 12:33N 62°28' E 006°21'0 0.4
2014-Apr-17 11:33N 62°27' E 006°20'187 3.8
2014-Apr-15 10:34N 59°22' E 005°18'1110.7
2014-Apr-15 09:33N 59°12' E 005°21'10 9.9
2014-Apr-15 08:34N 59°04' E 005°32'1010.4
2014-Apr-15 07:34N 58°53' E 005°32'9 9.0
2014-Apr-15 06:34N 58°45' E 005°25'27 8.8
2014-Apr-15 03:34N 58°22' E 005°49'9 8.9
2014-Apr-15 02:34N 58°16' E 006°02'9 9.2
2014-Apr-15 01:34N 58°10' E 006°15'9 8.9
2014-Apr-15 00:34N 58°04' E 006°27'  

Dump ship's entire track history

sailing weather and tide predictions

Cyprus Cement — C6UP5 — position and weather